This is the latest recevied weather packets stored in our database for station/object KF4UQS-14. If no packets are shown the sender has not sent any weather packets the latest 1 day(s).
| Time | Temp. | Humidity | Pressure | Rain* | Wind** | Luminosity | Snow |
|---|---|---|---|---|---|---|---|
| 1777980021 | 15.56° C | 80% | 1017.2 hPa | 0 mm | 0.89 m/s, 177° | 41 W/m² | - |
| 1777979714 | 15° C | 80% | 1017.2 hPa | 0 mm | 0.89 m/s, 183° | 38 W/m² | - |
| 1777979411 | 15° C | 80% | 1017.2 hPa | 0 mm | 1.34 m/s, 205° | 36 W/m² | - |
| 1777979108 | 15° C | 81% | 1017 hPa | 0 mm | 1.34 m/s, 174° | 34 W/m² | - |
| 1777978804 | 15° C | 81% | 1017.1 hPa | 0 mm | 0.89 m/s, 201° | 32 W/m² | - |
| 1777978501 | 15° C | 82% | 1016.9 hPa | 0 mm | 1.79 m/s, 202° | 30 W/m² | - |
| 1777978197 | 14.44° C | 82% | 1016.7 hPa | 0 mm | 1.34 m/s, 215° | 28 W/m² | - |
| 1777977894 | 14.44° C | 82% | 1016.9 hPa | 0 mm | 2.24 m/s, 227° | 26 W/m² | - |
| 1777977591 | 14.44° C | 82% | 1017 hPa | 0 mm | 1.34 m/s, 213° | 23 W/m² | - |
| 1777977288 | 14.44° C | 82% | 1016.7 hPa | 0 mm | 1.79 m/s, 184° | 21 W/m² | - |
| 1777976985 | 14.44° C | 82% | 1016.6 hPa | 0 mm | 1.34 m/s, 197° | 17 W/m² | - |
| 1777976681 | 14.44° C | 82% | 1016.6 hPa | 0 mm | 1.79 m/s, 190° | 13 W/m² | - |
| 1777976379 | 14.44° C | 82% | 1016.6 hPa | 0 mm | 1.79 m/s, 147° | 9 W/m² | - |
| 1777976072 | 14.44° C | 82% | 1016.4 hPa | 0 mm | 1.34 m/s, 218° | 6 W/m² | - |
| 1777975768 | 13.89° C | 83% | 1016.3 hPa | 0 mm | 1.34 m/s, 192° | 4 W/m² | - |
| 1777975465 | 13.89° C | 83% | 1016.3 hPa | 0 mm | 1.79 m/s, 207° | 2 W/m² | - |
| 1777975161 | 13.89° C | 83% | 1016.3 hPa | 0 mm | 1.79 m/s, 215° | 1 W/m² | - |
| 1777974859 | 13.89° C | 83% | 1016.3 hPa | 0 mm | 1.34 m/s, 228° | 0 W/m² | - |
| 1777974554 | 13.89° C | 83% | 1016.1 hPa | 0 mm | 0.89 m/s, 187° | 0 W/m² | - |
| 1777974252 | 13.89° C | 82% | 1016.1 hPa | 0 mm | 1.79 m/s, 206° | 0 W/m² | - |
| 1777973947 | 14.44° C | 82% | 1016.2 hPa | 0 mm | 1.79 m/s, 216° | 0 W/m² | - |
| 1777973644 | 14.44° C | 82% | 1016 hPa | 0 mm | 1.79 m/s, 189° | 0 W/m² | - |
| 1777973342 | 14.44° C | 82% | 1016 hPa | 0 mm | 2.24 m/s, 197° | 0 W/m² | - |
| 1777973040 | 14.44° C | 82% | 1016 hPa | 0 mm | 1.79 m/s, 187° | 0 W/m² | - |
| 1777972737 | 13.89° C | 82% | 1016.1 hPa | 0 mm | 1.34 m/s, 200° | 0 W/m² | - |
* Rain latest hour (hover to see other rain measurements)
** Current wind speed in m/s (hover to see current wind gust speed)